Regional Weather Roundup
Issued by NWS Kansas City/Pleasant Hill, MO

Home | Current Version | Previous Version | Text Only | Print | Product List | Glossary On
Versions: 1 2 3 4 5 6 7 8 9 10 11 12 13 14 15 16 17 18 19 20 21 22 23 24 25 26 27 28
000
ASUS43 KEAX 240110
RWREAX

WEATHER ROUNDUP FOR EASTERN KANSAS AND NORTHWEST MISSOURI
NATIONAL WEATHER SERVICE KANSAS CITY/PLEASANT HILL MO
800 PM CDT TUE MAY 23 2017

KSZ040-057-103>105-MOZ028-029-037-043-240200-
...KANSAS CITY METROPOLITAN AREA...

CITY           SKY/WX    TMP DP  RH WIND       PRES   REMARKS
K.C. INTL      CLOUDY    57  49  74 NW8       29.80S
K.C. DOWNTOWN  CLOUDY    56  52  86 SW5       29.80S
LEES SUMMIT    LGT RAIN  54  51  90 W9        29.81R
OLATHE - IXD   CLOUDY    53  51  93 NW8       29.82S
OLATHE - OJC   CLOUDY    53  53 100 NW6       29.81S
LAWRENCE       CLOUDY    57  54  89 W5        29.82S

$$

MOZ001>008-011>017-020>025-030>033-038>040-044>046-053-054-240200-
...NORTHERN AND CENTRAL MISSOURI...

CITY           SKY/WX    TMP DP  RH WIND       PRES   REMARKS
ST. JOSEPH     MOCLDY    58  48  69 NW9       29.80S
MOSBY          CLOUDY    59  45  58 NW6       29.79S
WARRENSBURG    MOCLDY    59  46  63 NW5       29.78R
WHITEMAN AFB   MOCLDY    60  48  64 NW9       29.76S
CLINTON        CLOUDY    61  46  59 NW8       29.78R
SEDALIA        CLOUDY    62  49  62 NW7       29.77S
WARSAW         NOT AVBL
CHILLICOTHE      N/A     60  47  61 VRB5      29.78S
KIRKSVILLE     MOCLDY    58  46  64 NW8       29.76R

$$

MOZ041-047>049-056>058-063>065-088>090-097-240200-
...EASTERN AND SOUTHERN MISSOURI...

CITY           SKY/WX    TMP DP  RH WIND       PRES   REMARKS
ST. LOUIS INTL CLOUDY    63  55  75 NW3       29.71S
SPIRIT OF STL  CLOUDY    62  58  86 CALM      29.70F
COLUMBIA       PTCLDY    61  51  70 W7        29.74S
JEFFERSON CITY CLEAR     65  49  56 NW7       29.73F
SPRINGFIELD    CLEAR     62  48  60 NW9       29.75F
BRANSON        MOCLDY    59  54  82 CALM      29.77F
JOPLIN         PTCLDY    63  50  62 NW7       29.79R
WEST PLAINS    CLOUDY    62  53  72 N6        29.76R

$$

IAZ060-094-KSZ022-034>040-054-083-096-NEZ052-066-093-240200-
...KANSAS...SOUTHEAST NEBRASKA AND IOWA...

CITY           SKY/WX    TMP DP  RH WIND       PRES   REMARKS
TOPEKA         CLOUDY    57  52  83 NW5       29.83R
MANHATTAN      CLOUDY    57  44  62 N7        29.86R
EMPORIA        LGT RAIN  55  52  89 NW9       29.84S
CHANUTE        CLOUDY    59  48  67 NW7       29.83
WICHITA        MOCLDY    60  40  47 NW23G36   29.88R
OMAHA          CLOUDY    53  45  74 N7        29.83S
LINCOLN        CLOUDY    54  47  77 N13       29.87S
FALLS CITY     CLOUDY    57  45  64 NW16G23   29.81S
LAMONI         MOCLDY    55  47  74 NW12      29.77S
DES MOINES     CLOUDY    55  46  71 W6        29.76R

$$





USA.gov is the U.S. government's official web portal to all federal, state and local government web resources and services.